Stündliche Wetter Stuttgart

Heute, 1 August, Sonntag

Zeit Temperatur Niederschläge Wind Luftdruck Luftfeuchtigkeit
00:00 +18°C° 0.1 mm 1 m/S 731 mmHg 80%
01:00 +18°C° 0.1 mm 1 m/S 731 mmHg 80%
02:00 +16°C° 1.3 mm 1 m/S 731 mmHg 85%
03:00 +16°C° 1.3 mm 1 m/S 731 mmHg 90%
04:00 +15°C° 1.3 mm 1 m/S 731 mmHg 95%
05:00 +15°C° 0.5 mm 1 m/S 731 mmHg 95%
06:00 +15°C° 0.5 mm 1 m/S 731 mmHg 94%
07:00 +15°C° 0.5 mm 1 m/S 731 mmHg 94%
08:00 +16°C° 0.1 mm 1 m/S 732 mmHg 90%
09:00 +17°C° 0.1 mm 2 m/S 732 mmHg 87%
10:00 +17°C° 0.1 mm 2 m/S 732 mmHg 83%
11:00 +18°C° 0.5 mm 2 m/S 732 mmHg 82%
12:00 +18°C° 0.5 mm 2 m/S 732 mmHg 80%
13:00 +18°C° 0.5 mm 2 m/S 732 mmHg 79%
14:00 +19°C° 0.5 mm 2 m/S 732 mmHg 78%
15:00 +19°C° 0.5 mm 2 m/S 732 mmHg 78%
16:00 +19°C° 0.5 mm 3 m/S 732 mmHg 77%
17:00 +18°C° 0.4 mm 3 m/S 732 mmHg 81%
18:00 +17°C° 0.4 mm 3 m/S 732 mmHg 85%
19:00 +16°C° 0.4 mm 3 m/S 733 mmHg 89%
20:00 +15°C° 0 mm 2 m/S 733 mmHg 90%
21:00 +15°C° 0 mm 2 m/S 733 mmHg 90%
22:00 +14°C° 0 mm 2 m/S 734 mmHg 90%
23:00 +14°C° 0 mm 2 m/S 734 mmHg 91%

Morgen, 2 August, Montag

Zeit Temperatur Niederschläge Wind Luftdruck Luftfeuchtigkeit
00:00 +13°C° 0 mm 2 m/S 734 mmHg 92%
01:00 +13°C° 0 mm 2 m/S 734 mmHg 92%
02:00 +13°C° 0 mm 1 m/S 734 mmHg 93%
03:00 +12°C° 0 mm 1 m/S 734 mmHg 93%
04:00 +12°C° 0 mm 1 m/S 734 mmHg 93%
05:00 +13°C° 0 mm 1 m/S 734 mmHg 91%
06:00 +14°C° 0 mm 1 m/S 735 mmHg 89%
07:00 +15°C° 0 mm 1 m/S 735 mmHg 88%
08:00 +16°C° 0.3 mm 1 m/S 735 mmHg 82%
09:00 +18°C° 0.3 mm 2 m/S 735 mmHg 77%
10:00 +19°C° 0.3 mm 2 m/S 735 mmHg 71%
11:00 +20°C° 0.4 mm 2 m/S 735 mmHg 67%
12:00 +21°C° 0.4 mm 2 m/S 735 mmHg 63%
13:00 +21°C° 0.4 mm 2 m/S 735 mmHg 58%
14:00 +23°C° 0.1 mm 2 m/S 735 mmHg 57%
15:00 +23°C° 0.1 mm 2 m/S 735 mmHg 56%
16:00 +23°C° 0.1 mm 2 m/S 735 mmHg 55%
17:00 +21°C° 0.2 mm 2 m/S 735 mmHg 62%
18:00 +20°C° 0.2 mm 2 m/S 735 mmHg 68%
19:00 +20°C° 0.2 mm 1 m/S 735 mmHg 74%
20:00 +19°C° 0 mm 1 m/S 735 mmHg 78%
21:00 +16°C° 0 mm 1 m/S 735 mmHg 81%
22:00 +15°C° 0 mm 1 m/S 735 mmHg 85%
23:00 +15°C° 0 mm 1 m/S 735 mmHg 86%

übermorgen, 3 August, Dienstag

Zeit Temperatur Niederschläge Wind Luftdruck Luftfeuchtigkeit
00:00 +14°C° 0 mm 1 m/S 735 mmHg 87%
01:00 +14°C° 0 mm 1 m/S 735 mmHg 89%
02:00 +14°C° 0 mm 1 m/S 735 mmHg 89%
03:00 +14°C° 0 mm 1 m/S 735 mmHg 89%
04:00 +14°C° 0 mm 1 m/S 734 mmHg 89%
05:00 +14°C° 0 mm 1 m/S 734 mmHg 87%
06:00 +15°C° 0 mm 1 m/S 734 mmHg 85%
07:00 +16°C° 0 mm 1 m/S 734 mmHg 83%
08:00 +18°C° 0.1 mm 1 m/S 734 mmHg 78%
09:00 +20°C° 0.1 mm 1 m/S 734 mmHg 72%
10:00 +21°C° 0.1 mm 1 m/S 734 mmHg 66%
11:00 +20°C° 0.4 mm 2 m/S 734 mmHg 70%
12:00 +19°C° 0.4 mm 3 m/S 734 mmHg 74%
13:00 +19°C° 0.4 mm 4 m/S 734 mmHg 78%
14:00 +20°C° 0.1 mm 4 m/S 734 mmHg 72%
15:00 +21°C° 0.1 mm 4 m/S 734 mmHg 66%
16:00 +22°C° 0.1 mm 4 m/S 734 mmHg 59%
17:00 +20°C° 0.1 mm 4 m/S 734 mmHg 66%
18:00 +19°C° 0.1 mm 3 m/S 734 mmHg 73%
19:00 +18°C° 0.1 mm 2 m/S 734 mmHg 80%
20:00 +17°C° 0 mm 2 m/S 734 mmHg 84%
21:00 +16°C° 0 mm 1 m/S 735 mmHg 87%
22:00 +15°C° 0 mm 1 m/S 735 mmHg 90%
23:00 +15°C° 0.1 mm 1 m/S 735 mmHg 91%

4 August, Mittwoch

Zeit Temperatur Niederschläge Wind Luftdruck Luftfeuchtigkeit
00:00 +15°C° 0.1 mm 1 m/S 735 mmHg 91%
01:00 +15°C° 0.1 mm 1 m/S 734 mmHg 91%
02:00 +15°C° 0.3 mm 1 m/S 734 mmHg 93%
03:00 +15°C° 0.3 mm 1 m/S 734 mmHg 94%
04:00 +14°C° 0.3 mm 0 m/S 734 mmHg 95%
05:00 +15°C° 0.6 mm 1 m/S 734 mmHg 96%
06:00 +15°C° 0.6 mm 1 m/S 734 mmHg 96%
07:00 +15°C° 0.6 mm 1 m/S 734 mmHg 97%
08:00 +15°C° 0.5 mm 1 m/S 734 mmHg 96%
09:00 +15°C° 0.5 mm 1 m/S 735 mmHg 96%
10:00 +15°C° 0.5 mm 1 m/S 735 mmHg 95%
11:00 +15°C° 0.2 mm 1 m/S 735 mmHg 93%
12:00 +16°C° 0.2 mm 1 m/S 735 mmHg 91%
13:00 +16°C° 0.2 mm 1 m/S 735 mmHg 89%
14:00 +18°C° 0.2 mm 1 m/S 735 mmHg 85%
15:00 +19°C° 0.2 mm 1 m/S 735 mmHg 81%
16:00 +18°C° 0.2 mm 2 m/S 735 mmHg 77%
17:00 +19°C° 0.2 mm 1 m/S 735 mmHg 79%
18:00 +18°C° 0.2 mm 1 m/S 735 mmHg 82%
19:00 +18°C° 0.2 mm 1 m/S 735 mmHg 84%
20:00 +16°C° 0.1 mm 1 m/S 735 mmHg 87%
21:00 +15°C° 0.1 mm 1 m/S 735 mmHg 89%
22:00 +14°C° 0.1 mm 1 m/S 735 mmHg 92%
23:00 +14°C° 0 mm 1 m/S 735 mmHg 92%

5 August, Donnerstag

Zeit Temperatur Niederschläge Wind Luftdruck Luftfeuchtigkeit
00:00 +13°C° 0 mm 1 m/S 735 mmHg 93%
01:00 +13°C° 0 mm 1 m/S 735 mmHg 93%
02:00 +13°C° 0 mm 1 m/S 735 mmHg 93%
03:00 +13°C° 0 mm 1 m/S 734 mmHg 92%
04:00 +13°C° 0 mm 1 m/S 734 mmHg 92%
05:00 +14°C° 0 mm 1 m/S 734 mmHg 91%
06:00 +14°C° 0 mm 1 m/S 734 mmHg 90%
07:00 +15°C° 0 mm 1 m/S 734 mmHg 88%
08:00 +15°C° 0.2 mm 1 m/S 734 mmHg 88%
09:00 +16°C° 0.2 mm 1 m/S 734 mmHg 89%
10:00 +16°C° 0.2 mm 1 m/S 734 mmHg 89%
11:00 +18°C° 0.7 mm 1 m/S 733 mmHg 86%
12:00 +18°C° 0.7 mm 2 m/S 733 mmHg 83%
13:00 +19°C° 0.7 mm 2 m/S 733 mmHg 80%
14:00 +19°C° 1 mm 3 m/S 733 mmHg 83%
15:00 +18°C° 1 mm 3 m/S 733 mmHg 85%
16:00 +18°C° 1 mm 3 m/S 733 mmHg 87%
17:00 +18°C° 0.5 mm 3 m/S 733 mmHg 89%
18:00 +17°C° 0.5 mm 3 m/S 733 mmHg 90%
19:00 +17°C° 0.5 mm 2 m/S 733 mmHg 92%
20:00 +16°C° 0 mm 2 m/S 733 mmHg 93%
21:00 +15°C° 0 mm 2 m/S 733 mmHg 93%
22:00 +15°C° 0 mm 2 m/S 733 mmHg 94%
23:00 +15°C° 0.1 mm 2 m/S 733 mmHg 94%

6 August, Freitag

Zeit Temperatur Niederschläge Wind Luftdruck Luftfeuchtigkeit
00:00 +15°C° 0.1 mm 2 m/S 732 mmHg 94%
01:00 +15°C° 0.1 mm 2 m/S 732 mmHg 93%
02:00 +15°C° 0.1 mm 2 m/S 732 mmHg 94%
03:00 +15°C° 0.1 mm 2 m/S 732 mmHg 94%
04:00 +15°C° 0.1 mm 2 m/S 732 mmHg 94%
05:00 +15°C° 0 mm 2 m/S 732 mmHg 93%
06:00 +16°C° 0 mm 2 m/S 732 mmHg 92%
07:00 +16°C° 0 mm 2 m/S 732 mmHg 91%
08:00 +18°C° 0.1 mm 3 m/S 732 mmHg 84%
09:00 +19°C° 0.1 mm 4 m/S 732 mmHg 76%
10:00 +20°C° 0.1 mm 5 m/S 732 mmHg 69%
11:00 +21°C° 0 mm 5 m/S 732 mmHg 64%
12:00 +21°C° 0 mm 5 m/S 732 mmHg 60%
13:00 +22°C° 0 mm 5 m/S 731 mmHg 56%
14:00 +22°C° 0 mm 4 m/S 731 mmHg 56%
15:00 +22°C° 0 mm 4 m/S 731 mmHg 55%
16:00 +23°C° 0 mm 4 m/S 731 mmHg 54%
17:00 +21°C° 0 mm 4 m/S 731 mmHg 61%
18:00 +20°C° 0 mm 4 m/S 731 mmHg 67%
19:00 +18°C° 0 mm 3 m/S 731 mmHg 73%
20:00 +17°C° 0 mm 2 m/S 731 mmHg 77%
21:00 +16°C° 0 mm 2 m/S 731 mmHg 81%
22:00 +14°C° 0 mm 1 m/S 731 mmHg 85%
23:00 +15°C° 0 mm 1 m/S 731 mmHg 83%
Mehr zeigen

Wir brauchen deine Erlaubnis

Meteoprog und unser Service Anbieter werden persönliche Daten aufbewahren, so wie Cookies, Geräte Bezeichnung oder ähnliche Technologien von deinem Gerät und Prozess, so wie Persönliche Daten Inhalte und Werbungen, genauso wie social Media und den Verkehr zu analysieren.

  • Aufbewahrung und/oder Zugang zu deiner Geräte Informationen.

    Cookies, Geräte Bezeichnung oder andere Informationen, können aufbewahrt oder Zugang zu deinem Gerät erhalten, für den Grund, der oben angegeben wird.

  • Personalisierte Werbung und Inhalte, Messungen, Einblick in das Publikum und Produkt Entwicklung.

    Werbungen und Inhalte können personalisiert werden, basierend auf ein Profil. Mehr Daten können besser personalisierte Werbungen und Inhalte hinzufügen. Werbung und Inhalte können gezeigt und gemessen werden. Einblicke über das Publikum, welche die Werbung gesehen haben und den Inhalt, können abgeleitet werden. So wie Daten können genutzt werden, um es zu verbessern oder die Benutzer Erfahrung zu verbessern das System und die Software.

Wenn du “Ich stimme zu” klickst, erlaubst du uns, die Cookies zu benutzen die Geräte Bezeichnung, den Web oder ähnliche Technologien zu benutzen. Deine Settings, können in deinem Gerät bei deinem Browser geändert werden.

Für den bestimmten Zweck, berechtigten Interessen beruhen darauf, mehr als auf den Inhalt. Du kannst mehr darüber in unseren Privaten und Cookie Politik lesen.